When you browse on this site, cookies collect data to enhance your experience and personalize the content and advertising you see.
Visit our Privacy Policy to learn more. By continuing to use the site, you agree to this use of cookies and data.
  • In Germany
  • List of Countries
  • For 7 days
  • Water Temperature
  • Satellite Maps
  • Weather Map
  • Weather Widgets
  • user-avatar
    Login

    Hourly Weather Nadbiel

    Today, 23 July, Tuesday

    Time Temperature Precipitation Wind Pressure Humidity
    00:00 +17°C° 0 mm 2 mps 756 mmHg 75%
    01:00 +16°C° 0 mm 1 mps 756 mmHg 77%
    02:00 +16°C° 0 mm 1 mps 756 mmHg 76%
    03:00 +16°C° 0 mm 1 mps 755 mmHg 75%
    04:00 +16°C° 0 mm 1 mps 755 mmHg 74%
    05:00 +18°C° 0 mm 1 mps 755 mmHg 71%
    06:00 +18°C° 0 mm 1 mps 755 mmHg 69%
    07:00 +19°C° 0 mm 1 mps 755 mmHg 66%
    08:00 +18°C° 0 mm 2 mps 755 mmHg 68%
    09:00 +18°C° 0 mm 2 mps 755 mmHg 70%
    10:00 +18°C° 0 mm 2 mps 755 mmHg 72%
    11:00 +19°C° 0 mm 3 mps 755 mmHg 70%
    12:00 +19°C° 0 mm 3 mps 755 mmHg 68%
    13:00 +20°C° 0 mm 3 mps 755 mmHg 66%
    14:00 +20°C° 0 mm 3 mps 755 mmHg 66%
    15:00 +21°C° 0 mm 3 mps 755 mmHg 65%
    16:00 +21°C° 0 mm 3 mps 755 mmHg 65%
    17:00 +21°C° 0 mm 3 mps 755 mmHg 69%
    18:00 +20°C° 0 mm 2 mps 754 mmHg 74%
    19:00 +19°C° 0 mm 2 mps 754 mmHg 78%
    20:00 +18°C° 0 mm 2 mps 754 mmHg 82%
    21:00 +17°C° 0 mm 2 mps 755 mmHg 86%
    22:00 +16°C° 0 mm 2 mps 755 mmHg 91%
    23:00 +16°C° 0 mm 2 mps 755 mmHg 91%

    Tomorrow, 24 July, Wednesday

    Time Temperature Precipitation Wind Pressure Humidity
    00:00 +16°C° 0 mm 1 mps 755 mmHg 92%
    01:00 +15°C° 0 mm 1 mps 754 mmHg 92%
    02:00 +15°C° 0 mm 1 mps 754 mmHg 92%
    03:00 +15°C° 0 mm 1 mps 754 mmHg 92%
    04:00 +15°C° 0 mm 1 mps 754 mmHg 91%
    05:00 +16°C° 0 mm 1 mps 754 mmHg 87%
    06:00 +19°C° 0 mm 1 mps 754 mmHg 82%
    07:00 +20°C° 0 mm 1 mps 754 mmHg 77%
    08:00 +21°C° 0 mm 1 mps 754 mmHg 71%
    09:00 +23°C° 0 mm 1 mps 755 mmHg 65%
    10:00 +24°C° 0 mm 1 mps 755 mmHg 59%
    11:00 +25°C° 0 mm 1 mps 754 mmHg 58%
    12:00 +25°C° 0 mm 2 mps 754 mmHg 56%
    13:00 +26°C° 0 mm 2 mps 754 mmHg 54%
    14:00 +26°C° 0 mm 2 mps 754 mmHg 52%
    15:00 +27°C° 0 mm 2 mps 754 mmHg 51%
    16:00 +27°C° 0 mm 2 mps 754 mmHg 49%
    17:00 +26°C° 0 mm 2 mps 754 mmHg 54%
    18:00 +24°C° 0 mm 2 mps 754 mmHg 59%
    19:00 +23°C° 0 mm 1 mps 754 mmHg 64%
    20:00 +22°C° 0 mm 1 mps 754 mmHg 68%
    21:00 +21°C° 0 mm 1 mps 755 mmHg 73%
    22:00 +20°C° 0 mm 1 mps 755 mmHg 77%
    23:00 +19°C° 0 mm 1 mps 755 mmHg 81%

    Day after tomorrow, 25 July, Thursday

    Time Temperature Precipitation Wind Pressure Humidity
    00:00 +19°C° 0 mm 1 mps 755 mmHg 84%
    01:00 +19°C° 0 mm 1 mps 755 mmHg 88%
    02:00 +18°C° 0 mm 1 mps 755 mmHg 89%
    03:00 +18°C° 0 mm 1 mps 755 mmHg 90%
    04:00 +18°C° 0 mm 1 mps 755 mmHg 91%
    05:00 +19°C° 0 mm 1 mps 755 mmHg 85%
    06:00 +21°C° 0 mm 1 mps 755 mmHg 79%
    07:00 +22°C° 0 mm 1 mps 755 mmHg 73%
    08:00 +24°C° 0 mm 1 mps 755 mmHg 67%
    09:00 +25°C° 0 mm 2 mps 755 mmHg 61%
    10:00 +27°C° 0 mm 2 mps 755 mmHg 56%
    11:00 +27°C° 0 mm 2 mps 755 mmHg 53%
    12:00 +27°C° 0 mm 2 mps 754 mmHg 50%
    13:00 +28°C° 0 mm 2 mps 754 mmHg 47%
    14:00 +28°C° 0 mm 3 mps 754 mmHg 46%
    15:00 +28°C° 0 mm 3 mps 754 mmHg 45%
    16:00 +28°C° 0 mm 3 mps 753 mmHg 44%
    17:00 +27°C° 0 mm 3 mps 753 mmHg 51%
    18:00 +25°C° 0 mm 3 mps 753 mmHg 57%
    19:00 +24°C° 0 mm 3 mps 753 mmHg 64%
    20:00 +21°C° 0 mm 3 mps 753 mmHg 69%
    21:00 +20°C° 0 mm 3 mps 753 mmHg 73%
    22:00 +18°C° 0 mm 3 mps 753 mmHg 77%
    23:00 +18°C° 0 mm 3 mps 753 mmHg 81%

    26 July, Friday

    Time Temperature Precipitation Wind Pressure Humidity
    00:00 +17°C° 0 mm 3 mps 753 mmHg 86%
    01:00 +16°C° 0 mm 2 mps 753 mmHg 90%
    02:00 +16°C° 0 mm 2 mps 753 mmHg 91%
    03:00 +15°C° 0 mm 2 mps 753 mmHg 93%
    04:00 +15°C° 0 mm 2 mps 753 mmHg 94%
    05:00 +17°C° 0 mm 3 mps 753 mmHg 89%
    06:00 +18°C° 0 mm 3 mps 752 mmHg 83%
    07:00 +19°C° 0 mm 3 mps 752 mmHg 77%
    08:00 +21°C° 0 mm 4 mps 752 mmHg 70%
    09:00 +22°C° 0 mm 4 mps 752 mmHg 63%
    10:00 +25°C° 0 mm 4 mps 752 mmHg 55%
    11:00 +25°C° 0.1 mm 4 mps 752 mmHg 54%
    12:00 +26°C° 0.1 mm 4 mps 752 mmHg 53%
    13:00 +27°C° 0.1 mm 4 mps 752 mmHg 52%
    14:00 +26°C° 0.2 mm 5 mps 751 mmHg 56%
    15:00 +26°C° 0.2 mm 5 mps 751 mmHg 59%
    16:00 +25°C° 0.2 mm 5 mps 751 mmHg 62%
    17:00 +23°C° 0 mm 4 mps 751 mmHg 68%
    18:00 +22°C° 0 mm 4 mps 751 mmHg 73%
    19:00 +22°C° 0 mm 3 mps 751 mmHg 78%
    20:00 +21°C° 0 mm 3 mps 751 mmHg 80%
    21:00 +20°C° 0 mm 3 mps 751 mmHg 82%
    22:00 +20°C° 0 mm 3 mps 751 mmHg 85%
    23:00 +19°C° 0.1 mm 3 mps 751 mmHg 87%

    27 July, Saturday

    Time Temperature Precipitation Wind Pressure Humidity
    00:00 +18°C° 0.1 mm 3 mps 751 mmHg 90%
    01:00 +18°C° 0.1 mm 3 mps 751 mmHg 93%
    02:00 +17°C° 0 mm 3 mps 751 mmHg 94%
    03:00 +17°C° 0 mm 3 mps 751 mmHg 95%
    04:00 +16°C° 0 mm 3 mps 750 mmHg 96%
    05:00 +18°C° 0 mm 3 mps 751 mmHg 92%
    06:00 +19°C° 0 mm 3 mps 751 mmHg 88%
    07:00 +20°C° 0 mm 4 mps 751 mmHg 84%
    08:00 +21°C° 0 mm 4 mps 751 mmHg 77%
    09:00 +23°C° 0 mm 5 mps 751 mmHg 70%
    10:00 +25°C° 0 mm 5 mps 751 mmHg 62%
    11:00 +26°C° 0.3 mm 5 mps 751 mmHg 60%
    12:00 +27°C° 0.3 mm 5 mps 751 mmHg 58%
    13:00 +27°C° 0.3 mm 6 mps 750 mmHg 55%
    14:00 +27°C° 0.4 mm 6 mps 750 mmHg 56%
    15:00 +27°C° 0.4 mm 6 mps 750 mmHg 57%
    16:00 +27°C° 0.4 mm 6 mps 750 mmHg 58%
    17:00 +26°C° 0 mm 5 mps 750 mmHg 62%
    18:00 +25°C° 0 mm 4 mps 750 mmHg 66%
    19:00 +23°C° 0 mm 4 mps 750 mmHg 70%
    20:00 +22°C° 0 mm 4 mps 750 mmHg 76%
    21:00 +20°C° 0 mm 3 mps 750 mmHg 82%
    22:00 +19°C° 0 mm 3 mps 750 mmHg 88%
    23:00 +19°C° 0 mm 3 mps 750 mmHg 88%

    28 July, Sunday

    Time Temperature Precipitation Wind Pressure Humidity
    00:00 +19°C° 0 mm 3 mps 750 mmHg 89%
    01:00 +19°C° 0 mm 3 mps 750 mmHg 89%
    02:00 +19°C° 0 mm 3 mps 750 mmHg 90%
    03:00 +19°C° 0 mm 3 mps 750 mmHg 91%
    04:00 +19°C° 0 mm 3 mps 750 mmHg 91%
    05:00 +20°C° 0 mm 3 mps 750 mmHg 87%
    06:00 +21°C° 0 mm 4 mps 750 mmHg 83%
    07:00 +22°C° 0 mm 4 mps 750 mmHg 79%
    08:00 +23°C° 0.5 mm 5 mps 750 mmHg 74%
    09:00 +26°C° 0.5 mm 5 mps 750 mmHg 69%
    10:00 +27°C° 0.5 mm 6 mps 750 mmHg 64%
    11:00 +27°C° 1.2 mm 6 mps 750 mmHg 63%
    12:00 +28°C° 1.2 mm 6 mps 749 mmHg 62%
    13:00 +28°C° 1.2 mm 6 mps 749 mmHg 62%
    14:00 +28°C° 0.7 mm 5 mps 749 mmHg 61%
    15:00 +28°C° 0.7 mm 5 mps 749 mmHg 61%
    16:00 +28°C° 0.7 mm 4 mps 748 mmHg 60%
    17:00 +27°C° 0.4 mm 4 mps 748 mmHg 66%
    18:00 +26°C° 0.4 mm 4 mps 748 mmHg 71%
    19:00 +25°C° 0.4 mm 3 mps 748 mmHg 77%
    20:00 +24°C° 0.1 mm 3 mps 749 mmHg 79%
    21:00 +22°C° 0.1 mm 3 mps 749 mmHg 82%
    22:00 +22°C° 0.1 mm 3 mps 749 mmHg 85%
    23:00 +21°C° 0.2 mm 3 mps 749 mmHg 87%
    Show more